DW1234 Weather Reports


Display with metric or nautical units.
time (UTC)temp
F
wind
direction
speed
MPH
gust
MPH
rain 1hr
in
rain 24hr
in
rain mn
in
humidity
%
barometer
mb
20260902033753 82 182 7.0 9.0 0.00 0.00 0.00 65 1012.6
20260902033240 83 163 7.0 11.0 0.00 0.00 0.00 65 1012.6
20260902033033 82 186 7.0 11.0 0.00 0.00 0.00 65 1009.8
20260902032722 83 172 7.0 11.0 0.00 0.00 0.00 65 1012.5
20260902032254 83 163 7.0 10.0 0.00 0.00 0.00 65 1012.5
20260902031742 83 161 8.0 10.0 0.00 0.00 0.00 65 1012.5
20260902031557 83 160 6.0 10.0 0.00 0.00 0.00 65 1009.6
20260902031226 83 171 7.0 10.0 0.00 0.00 0.00 65 1012.5
20260902030756 83 169 6.0 10.0 0.00 0.00 0.00 65 1012.5
20260902030242 83 155 7.0 11.0 0.00 0.00 0.00 65 1012.5
20260902030034 83 162 7.0 11.0 0.00 0.00 0.00 65 1009.6
20260902025725 83 160 7.0 11.0 0.00 0.00 0.00 65 1012.5
20260902025237 84 174 7.0 10.0 0.00 0.00 0.00 65 1012.3
20260902024722 84 140 8.0 10.0 0.00 0.00 0.00 65 1012.3
20260902024545 83 166 7.0 11.0 0.00 0.00 0.00 65 1009.4
20260902024233 84 172 7.0 11.0 0.00 0.00 0.00 65 1012.3
20260902023743 84 144 7.0 10.0 0.00 0.00 0.00 64 1012.2
20260902023225 84 175 7.0 10.0 0.00 0.00 0.00 64 1012.2
20260902023048 84 163 6.0 9.0 0.00 0.00 0.00 64 1009.2
20260902022736 84 169 6.0 10.0 0.00 0.00 0.00 64 1012.1
20260902022243 85 167 6.0 11.0 0.00 0.00 0.00 64 1012.0
20260902021725 85 176 7.0 11.0 0.00 0.00 0.00 63 1011.9
20260902021613 84 171 6.0 10.0 0.00 0.00 0.00 63 1008.9
20260902021237 85 163 7.0 10.0 0.00 0.00 0.00 63 1011.8
20260902020747 85 165 6.0 9.0 0.00 0.00 0.00 62 1011.8
20260902020230 86 164 6.0 9.0 0.00 0.00 0.00 62 1011.8
20260902020056 85 167 5.0 9.0 0.00 0.00 0.00 62 1008.8
20260902015741 86 146 6.0 8.0 0.00 0.00 0.00 61 1011.7
20260902015222 86 173 6.0 8.0 0.00 0.00 0.00 61 1011.6
20260902014733 87 152 5.0 9.0 0.00 0.00 0.00 60 1011.5
20260902014558 86 156 4.0 9.0 0.00 0.00 0.00 60 1008.6
20260902014242 87 171 6.0 9.0 0.00 0.00 0.00 60 1011.5
20260902013723 87 140 5.0 10.0 0.00 0.00 0.00 59 1011.3
20260902013236 88 180 7.0 11.0 0.00 0.00 0.00 59 1011.3
20260902013104 87 165 7.0 10.0 0.00 0.00 0.00 59 1008.3
20260902012746 88 173 6.0 10.0 0.00 0.00 0.00 59 1011.3
20260902012229 88 165 6.0 10.0 0.00 0.00 0.00 58 1011.2
20260902011739 89 163 6.0 9.0 0.00 0.00 0.00 58 1011.3
20260902011600 88 161 5.0 9.0 0.00 0.00 0.00 58 1008.2
20260902011251 89 170 6.0 9.0 0.00 0.00 0.00 58 1011.2
20260902010743 90 161 6.0 8.0 0.00 0.00 0.00 57 1011.2
20260902010222 90 165 6.0 9.0 0.00 0.00 0.00 56 1011.2
20260902010036 90 163 5.0 9.0 0.00 0.00 0.00 56 1008.2
20260902005734 91 149 6.0 9.0 0.00 0.00 0.00 56 1011.2
20260902005244 91 178 7.0 9.0 0.00 0.00 0.00 55 1011.2
20260902004729 91 158 6.0 10.0 0.00 0.00 0.00 55 1011.2
20260902004538 91 180 6.0 9.0 0.00 0.00 0.00 54 1008.3
20260902004243 92 156 7.0 10.0 0.00 0.00 0.00 54 1011.3
20260902003725 93 162 7.0 10.0 0.00 0.00 0.00 53 1011.2
20260902003237 93 163 7.0 9.0 0.00 0.00 0.00 52 1011.3
20260902003044 93 180 6.0 9.0 0.00 0.00 0.00 52 1008.3
20260902002749 94 143 7.0 9.0 0.00 0.00 0.00 52 1011.2
20260902002235 94 156 6.0 9.0 0.00 0.00 0.00 51 1011.2
20260902001746 95 166 5.0 7.0 0.00 0.00 0.00 51 1011.2
20260902001504 95 167 5.0 9.0 0.00 0.00 0.00 51 1008.3
20260902001237 95 157 6.0 9.0 0.00 0.00 0.00 51 1011.3
20260902000747 96 174 6.0 11.0 0.00 0.00 0.00 50 1011.3
20260902000241 96 146 6.0 11.0 0.00 0.00 0.00 50 1011.5
20260902000044 95 178 7.0 11.0 0.00 0.00 0.00 50 1008.5
20260901235722 96 163 6.0 9.0 0.00 0.00 0.00 49 1011.5
20260901235236 97 163 7.0 10.0 0.00 0.00 0.00 49 1011.5
20260901234742 97 166 8.0 10.0 0.00 0.00 0.00 49 1011.6
20260901234554 97 191 6.0 12.0 0.00 0.00 0.00 49 1008.6
20260901234228 97 192 6.0 9.0 0.00 0.00 0.00 49 1011.6
20260901233738 97 182 6.0 8.0 0.00 0.00 0.00 49 1011.6
20260901233250 97 188 5.0 8.0 0.00 0.00 0.00 48 1011.7
20260901233053 97 178 4.0 8.0 0.00 0.00 0.00 49 1008.7
20260901232735 98 190 5.0 9.0 0.00 0.00 0.00 48 1011.6
20260901232248 98 198 6.0 11.0 0.00 0.00 0.00 47 1011.7
20260901231739 98 183 5.0 11.0 0.00 0.00 0.00 47 1011.7
20260901231530 97 165 6.0 11.0 0.00 0.00 0.00 48 1008.8
20260901231224 98 155 5.0 11.0 0.00 0.00 0.00 48 1011.7
20260901230749 98 186 7.0 10.0 0.00 0.00 0.00 47 1011.7
20260901230232 98 184 6.0 10.0 0.00 0.00 0.00 47 1011.7
20260901230032 98 188 7.0 12.0 0.00 0.00 0.00 47 1008.8
20260901225744 98 200 6.0 11.0 0.00 0.00 0.00 47 1011.8
20260901225228 98 199 6.0 10.0 0.00 0.00 0.00 48 1011.8
20260901224758 98 211 7.0 10.0 0.00 0.00 0.00 48 1011.9
20260901224528 97 186 6.0 10.0 0.00 0.00 0.00 48 1009.0
20260901224250 98 197 6.0 13.0 0.00 0.00 0.00 49 1011.9
20260901223732 98 201 7.0 13.0 0.00 0.00 0.00 47 1011.9
20260901223240 98 219 7.0 12.0 0.00 0.00 0.00 48 1011.8
20260901223011 97 179 6.0 12.0 0.00 0.00 0.00 47 1008.9
20260901222723 97 183 8.0 12.0 0.00 0.00 0.00 47 1011.8
20260901222235 97 180 8.0 15.0 0.00 0.00 0.00 47 1011.8
20260901221746 98 179 10.0 15.0 0.00 0.00 0.00 47 1011.8
20260901221513 97 211 8.0 17.0 0.00 0.00 0.00 47 1008.9
20260901221229 98 205 7.0 17.0 0.00 0.00 0.00 47 1011.9
20260901220740 98 166 8.0 14.0 0.00 0.00 0.00 47 1012.0
20260901220223 98 201 8.0 19.0 0.00 0.00 0.00 46 1012.0
20260901220009 98 191 9.0 19.0 0.00 0.00 0.00 45 1009.0
20260901215735 98 207 9.0 19.0 0.00 0.00 0.00 46 1012.1
20260901215306 98 200 9.0 19.0 0.00 0.00 0.00 45 1012.1
20260901214724 98 157 9.0 17.0 0.00 0.00 0.00 46 1012.1
20260901214554 98 178 9.0 17.0 0.00 0.00 0.00 46 1009.2
20260901214238 98 223 9.0 17.0 0.00 0.00 0.00 48 1012.1
20260901213749 98 188 10.0 17.0 0.00 0.00 0.00 47 1012.1
20260901213231 98 213 11.0 17.0 0.00 0.00 0.00 46 1012.2
20260901213055 97 196 10.0 17.0 0.00 0.00 0.00 48 1009.3
20260901212742 98 180 11.0 18.0 0.00 0.00 0.00 47 1012.1
20260901212224 98 191 13.0 20.0 0.00 0.00 0.00 46 1012.2
20260901211731 98 183 13.0 20.0 0.00 0.00 0.00 47 1012.2
20260901211555 98 211 8.0 15.0 0.00 0.00 0.00 47 1009.3
20260901211303 98 190 10.0 17.0 0.00 0.00 0.00 47 1012.3
20260901210723 99 221 11.0 17.0 0.00 0.00 0.00 47 1012.4
20260901210234 99 217 7.0 12.0 0.00 0.00 0.00 49 1012.4
20260901210033 98 180 8.0 12.0 0.00 0.00 0.00 49 1009.6
20260901205745 99 148 8.0 14.0 0.00 0.00 0.00 49 1012.4
20260901205235 99 176 8.0 17.0 0.00 0.00 0.00 49 1012.4
20260901204804 99 196 10.0 17.0 0.00 0.00 0.00 48 1012.4
20260901204541 99 211 10.0 15.0 0.00 0.00 0.00 46 1009.6
20260901204227 100 196 10.0 16.0 0.00 0.00 0.00 48 1012.6
20260901203737 100 169 9.0 16.0 0.00 0.00 0.00 47 1012.6
20260901203221 99 181 8.0 13.0 0.00 0.00 0.00 49 1012.7
20260901203040 98 178 7.0 13.0 0.00 0.00 0.00 50 1009.9
20260901202732 99 170 8.0 16.0 0.00 0.00 0.00 49 1012.9
20260901202246 99 165 9.0 16.0 0.00 0.00 0.00 48 1012.9
20260901201729 99 189 8.0 12.0 0.00 0.00 0.00 49 1012.9
20260901201533 98 188 7.0 18.0 0.00 0.00 0.00 48 1010.1
20260901201303 99 200 9.0 18.0 0.00 0.00 0.00 48 1013.0
20260901200749 99 197 11.0 18.0 0.00 0.00 0.00 48 1012.9
20260901200240 100 201 7.0 14.0 0.00 0.00 0.00 48 1013.1
20260901200106 99 198 9.0 16.0 0.00 0.00 0.00 47 1010.3
20260901195723 100 174 10.0 16.0 0.00 0.00 0.00 47 1013.1
20260901195253 99 176 11.0 16.0 0.00 0.00 0.00 48 1013.2
20260901194743 100 213 9.0 15.0 0.00 0.00 0.00 46 1013.2
20260901194528 99 182 10.0 15.0 0.00 0.00 0.00 47 1010.4
20260901194228 99 170 8.0 14.0 0.00 0.00 0.00 47 1013.2
20260901193737 99 171 6.0 12.0 0.00 0.00 0.00 48 1013.3
20260901193246 99 174 10.0 15.0 0.00 0.00 0.00 47 1013.3
20260901193029 99 171 8.0 15.0 0.00 0.00 0.00 48 1010.5
20260901192729 99 144 9.0 15.0 0.00 0.00 0.00 47 1013.3
20260901192241 99 155 7.0 13.0 0.00 0.00 0.00 49 1013.5
20260901191726 99 169 9.0 13.0 0.00 0.00 0.00 48 1013.5
20260901191539 98 178 6.0 13.0 0.00 0.00 0.00 48 1010.8
20260901191239 98 192 7.0 13.0 0.00 0.00 0.00 47 1013.7
20260901190751 98 148 6.0 15.0 0.00 0.00 0.00 48 1013.6
20260901190221 98 175 8.0 15.0 0.00 0.00 0.00 48 1013.6
20260901190059 97 166 7.0 15.0 0.00 0.00 0.00 48 1010.8
20260901185728 98 178 9.0 15.0 0.00 0.00 0.00 46 1013.5
20260901185240 98 188 11.0 14.0 0.00 0.00 0.00 46 1013.4
20260901184724 98 132 10.0 14.0 0.00 0.00 0.00 46 1013.4
20260901184503 97 151 9.0 14.0 0.00 0.00 0.00 48 1010.8
20260901184236 98 169 8.0 16.0 0.00 0.00 0.00 48 1013.6
20260901183748 98 202 9.0 15.0 0.00 0.00 0.00 48 1013.6
20260901183231 98 174 10.0 14.0 0.00 0.00 0.00 47 1013.7
20260901183005 97 186 8.0 14.0 0.00 0.00 0.00 46 1010.9
20260901182743 98 183 9.0 15.0 0.00 0.00 0.00 47 1013.7
20260901182228 98 161 6.0 15.0 0.00 0.00 0.00 47 1013.8
20260901181736 97 160 6.0 11.0 0.00 0.00 0.00 47 1013.9
20260901181502 97 202 7.0 11.0 0.00 0.00 0.00 46 1011.1
20260901181249 97 163 8.0 11.0 0.00 0.00 0.00 48 1014.0
20260901180740 98 194 5.0 11.0 0.00 0.00 0.00 47 1014.0
20260901180223 97 161 5.0 12.0 0.00 0.00 0.00 47 1014.1
20260901180041 97 204 7.0 12.0 0.00 0.00 0.00 48 1011.3
20260901175734 97 198 6.0 12.0 0.00 0.00 0.00 48 1014.2
20260901175306 97 163 5.0 9.0 0.00 0.00 0.00 50 1014.2
20260901174727 96 156 8.0 10.0 0.00 0.00 0.00 47 1014.2
20260901174535 96 207 6.0 9.0 0.00 0.00 0.00 50 1011.4
20260901174237 96 159 5.0 11.0 0.00 0.00 0.00 49 1014.2
20260901173806 96 161 6.0 10.0 0.00 0.00 0.00 51 1014.2
20260901173229 95 207 4.0 9.0 0.00 0.00 0.00 52 1014.3
20260901173101 95 200 4.0 10.0 0.00 0.00 0.00 52 1011.5
20260901172739 95 227 4.0 8.0 0.00 0.00 0.00 52 1014.3
20260901172223 94 171 5.0 14.0 0.00 0.00 0.00 52 1014.4
20260901171735 94 185 7.0 14.0 0.00 0.00 0.00 50 1014.4
20260901171605 94 198 7.0 14.0 0.00 0.00 0.00 51 1011.7
20260901171248 94 190 5.0 11.0 0.00 0.00 0.00 52 1014.4
20260901170732 93 207 6.0 12.0 0.00 0.00 0.00 52 1014.4
20260901170236 93 209 6.0 12.0 0.00 0.00 0.00 52 1014.4
20260901170055 93 199 8.0 12.0 0.00 0.00 0.00 52 1011.7
20260901165749 93 163 4.0 12.0 0.00 0.00 0.00 52 1014.4
20260901165233 93 168 7.0 12.0 0.00 0.00 0.00 50 1014.5
20260901164736 93 192 6.0 10.0 0.00 0.00 0.00 53 1014.5
20260901164559 92 206 6.0 10.0 0.00 0.00 0.00 52 1011.8
20260901164248 92 196 5.0 10.0 0.00 0.00 0.00 52 1014.6
20260901163737 92 170 7.0 15.0 0.00 0.00 0.00 53 1014.6
20260901163221 92 144 9.0 15.0 0.00 0.00 0.00 54 1014.6
20260901163040 91 157 7.0 12.0 0.00 0.00 0.00 54 1012.0
20260901162729 92 150 8.0 12.0 0.00 0.00 0.00 53 1014.7
20260901162239 91 171 7.0 10.0 0.00 0.00 0.00 56 1014.7
20260901161722 91 198 4.0 8.0 0.00 0.00 0.00 54 1014.8
20260901161543 90 202 4.0 8.0 0.00 0.00 0.00 56 1012.1
20260901161234 91 200 5.0 8.0 0.00 0.00 0.00 57 1014.8
20260901160745 90 194 5.0 10.0 0.00 0.00 0.00 56 1014.8
20260901160237 90 182 6.0 10.0 0.00 0.00 0.00 60 1014.8
20260901160021 89 174 6.0 8.0 0.00 0.00 0.00 59 1012.1
20260901155749 89 144 4.0 7.0 0.00 0.00 0.00 60 1014.7
20260901155237 88 205 5.0 8.0 0.00 0.00 0.00 59 1014.5
20260901154724 88 213 5.0 8.0 0.00 0.00 0.00 58 1014.5
20260901154504 88 209 5.0 8.0 0.00 0.00 0.00 57 1011.8
20260901154238 89 175 5.0 8.0 0.00 0.00 0.00 58 1014.5
20260901153721 88 190 5.0 8.0 0.00 0.00 0.00 59 1014.7
20260901153231 88 160 5.0 8.0 0.00 0.00 0.00 58 1014.5
20260901153008 88 171 4.0 7.0 0.00 0.00 0.00 61 1011.9
20260901152742 88 172 4.0 6.0 0.00 0.00 0.00 61 1014.5
20260901152225 87 202 4.0 5.0 0.00 0.00 0.00 59 1014.4
20260901151738 87 202 3.0 5.0 0.00 0.00 0.00 61 1014.5
20260901151509 86 159 2.0 5.0 0.00 0.00 0.00 61 1011.8
20260901151248 86 224 3.0 5.0 0.00 0.00 0.00 60 1014.5
20260901150738 86 213 2.0 6.0 0.00 0.00 0.00 62 1014.5
20260901150222 86 213 4.0 7.0 0.00 0.00 0.00 61 1014.5
20260901150055 86 213 4.0 7.0 0.00 0.00 0.00 60 1011.8
20260901145736 86 135 5.0 8.0 0.00 0.00 0.00 60 1014.5
20260901145246 86 194 3.0 8.0 0.00 0.00 0.00 61 1014.5
20260901144730 86 194 3.0 7.0 0.00 0.00 0.00 62 1014.6
20260901144530 85 194 4.0 7.0 0.00 0.00 0.00 60 1012.0
20260901144243 85 170 5.0 7.0 0.00 0.00 0.00 63 1014.6
20260901143725 85 196 4.0 7.0 0.00 0.00 0.00 63 1014.5
20260901143234 84 199 4.0 9.0 0.00 0.00 0.00 63 1014.5
20260901143034 84 203 4.0 9.0 0.00 0.00 0.00 62 1012.0
20260901142749 84 181 5.0 9.0 0.00 0.00 0.00 65 1014.7
20260901142230 84 207 5.0 7.0 0.00 0.00 0.00 63 1014.8
20260901141740 84 197 4.0 8.0 0.00 0.00 0.00 64 1014.8
20260901141534 83 201 3.0 8.0 0.00 0.00 0.00 65 1012.2
20260901141224 83 204 4.0 8.0 0.00 0.00 0.00 65 1014.8
20260901140735 83 156 3.0 6.0 0.00 0.00 0.00 68 1014.8
20260901140247 83 171 4.0 6.0 0.00 0.00 0.00 68 1014.7
20260901140035 82 195 2.0 6.0 0.00 0.00 0.00 67 1012.1
20260901135729 82 170 4.0 7.0 0.00 0.00 0.00 67 1014.7
20260901135237 82 174 4.0 7.0 0.00 0.00 0.00 70 1014.8
20260901134748 81 155 5.0 7.0 0.00 0.00 0.00 70 1014.8
20260901134536 81 171 5.0 8.0 0.00 0.00 0.00 71 1012.2
20260901134233 81 162 3.0 7.0 0.00 0.00 0.00 72 1014.8
20260901133742 80 163 4.0 7.0 0.00 0.00 0.00 72 1014.8
20260901133227 80 144 4.0 7.0 0.00 0.00 0.00 74 1014.8
20260901133028 79 165 4.0 7.0 0.00 0.00 0.00 75 1012.2
20260901132742 79 161 4.0 7.0 0.00 0.00 0.00 75 1014.8
20260901132225 79 156 4.0 7.0 0.00 0.00 0.00 77 1014.8
20260901131751 78 154 4.0 7.0 0.00 0.00 0.00 78 1014.9
20260901131510 77 140 3.0 7.0 0.00 0.00 0.00 79 1012.2
20260901131304 77 171 4.0 8.0 0.00 0.00 0.00 79 1014.8
20260901130725 77 155 4.0 8.0 0.00 0.00 0.00 80 1014.8
20260901130237 76 159 5.0 8.0 0.00 0.00 0.00 81 1014.8
20260901130020 76 157 3.0 7.0 0.00 0.00 0.00 81 1012.2
20260901125722 76 164 4.0 7.0 0.00 0.00 0.00 82 1014.8
20260901125236 75 167 4.0 7.0 0.00 0.00 0.00 82 1014.6
20260901124750 75 163 5.0 7.0 0.00 0.00 0.00 82 1014.7
20260901124510 75 138 3.0 8.0 0.00 0.00 0.00 82 1012.0
20260901124239 75 140 4.0 8.0 0.00 0.00 0.00 82 1014.6
20260901123809 75 155 5.0 8.0 0.00 0.00 0.00 82 1014.5
20260901123231 75 155 5.0 8.0 0.00 0.00 0.00 82 1014.5
20260901123101 74 146 3.0 7.0 0.00 0.00 0.00 82 1011.8
20260901122743 75 159 4.0 8.0 0.00 0.00 0.00 82 1014.3
20260901122228 75 159 4.0 9.0 0.00 0.00 0.00 82 1014.4
20260901121801 75 153 6.0 9.0 0.00 0.00 0.00 82 1014.3
20260901121529 74 163 4.0 7.0 0.00 0.00 0.00 82 1011.7
20260901121227 75 175 4.0 7.0 0.00 0.00 0.00 82 1014.2
20260901120811 75 148 3.0 7.0 0.00 0.00 0.00 82 1014.2
20260901120233 75 140 5.0 7.0 0.00 0.00 0.00 82 1014.2
20260901120101 75 157 4.0 6.0 0.00 0.00 0.00 82 1011.5
20260901120002 75 156 3.0 5.0 0.00 0.00 0.00 82 1011.6
20260901115745 75 156 2.0 5.0 0.00 0.00 0.00 82 1014.2
20260901115230 75 156 3.0 5.0 0.00 0.00 0.00 82 1014.2
20260901114742 75 156 2.0 5.0 0.00 0.00 0.00 81 1014.2
20260901114509 75 156 1.0 5.0 0.00 0.00 0.00 81 1011.5
20260901114225 75 157 2.0 5.0 0.00 0.00 0.00 81 1014.2
20260901113729 75 156 3.0 5.0 0.00 0.00 0.00 81 1014.1
20260901113243 76 157 2.0 5.0 0.00 0.00 0.00 80 1014.2
20260901113058 75 156 1.0 5.0 0.00 0.00 0.00 80 1011.5
20260901112725 76 156 1.0 6.0 0.00 0.00 0.00 80 1014.2
20260901112237 76 156 2.0 6.0 0.00 0.00 0.00 81 1014.2
20260901111749 76 157 3.0 7.0 0.00 0.00 0.00 81 1014.2
20260901111600 75 156 2.0 8.0 0.00 0.00 0.00 81 1011.5
20260901111502 75 157 2.0 8.0 0.00 0.00 0.00 81 1011.5
20260901111234 76 157 3.0 8.0 0.00 0.00 0.00 81 1014.2
20260901110745 76 159 5.0 8.0 0.00 0.00 0.00 80 1014.2
20260901110229 76 198 5.0 7.0 0.00 0.00 0.00 80 1014.2
20260901110013 75 161 4.0 8.0 0.00 0.00 0.00 80 1011.5
20260901105740 76 163 4.0 8.0 0.00 0.00 0.00 80 1014.2
20260901105223 76 162 5.0 8.0 0.00 0.00 0.00 81 1014.2
20260901104732 76 197 4.0 7.0 0.00 0.00 0.00 82 1014.1
20260901104518 76 159 3.0 6.0 0.00 0.00 0.00 82 1011.5
20260901104305 76 160 3.0 5.0 0.00 0.00 0.00 82 1014.3
20260901103726 77 155 3.0 5.0 0.00 0.00 0.00 82 1014.2
20260901103240 77 155 2.0 5.0 0.00 0.00 0.00 82 1014.3
20260901103049 76 155 2.0 5.0 0.00 0.00 0.00 82 1011.7
20260901102724 77 155 3.0 5.0 0.00 0.00 0.00 82 1014.3
20260901102236 77 155 2.0 3.0 0.00 0.00 0.00 82 1014.3
20260901101747 77 155 3.0 3.0 0.00 0.00 0.00 82 1014.4
20260901101553 76 155 1.0 3.0 0.00 0.00 0.00 82 1011.7
20260901101231 77 155 1.0 3.0 0.00 0.00 0.00 82 1014.4
20260901100743 77 155 2.0 5.0 0.00 0.00 0.00 82 1014.5
20260901100225 77 155 2.0 3.0 0.00 0.00 0.00 81 1014.4
20260901100105 77 155 1.0 3.0 0.00 0.00 0.00 81 1011.8
20260901095736 77 155 2.0 5.0 0.00 0.00 0.00 81 1014.5
20260901095247 77 155 2.0 6.0 0.00 0.00 0.00 82 1014.5
20260901094732 77 155 3.0 8.0 0.00 0.00 0.00 82 1014.5
20260901094509 77 155 3.0 8.0 0.00 0.00 0.00 82 1011.9
20260901094246 77 154 4.0 8.0 0.00 0.00 0.00 82 1014.5
20260901093726 77 159 5.0 7.0 0.00 0.00 0.00 82 1014.5
20260901093237 77 155 3.0 4.0 0.00 0.00 0.00 83 1014.5
20260901093017 77 142 2.0 4.0 0.00 0.00 0.00 83 1011.8
20260901092750 77 142 2.0 4.0 0.00 0.00 0.00 83 1014.5
20260901092243 77 142 3.0 5.0 0.00 0.00 0.00 84 1014.5
20260901091725 77 142 4.0 5.0 0.00 0.00 0.00 84 1014.5
20260901091507 77 142 2.0 5.0 0.00 0.00 0.00 84 1011.9
20260901091239 77 129 3.0 5.0 0.00 0.00 0.00 84 1014.6
20260901090751 77 129 3.0 5.0 0.00 0.00 0.00 84 1014.6
20260901090257 77 129 3.0 5.0 0.00 0.00 0.00 84 1014.6
20260901090040 77 142 3.0 4.0 0.00 0.00 0.00 84 1011.9
20260901085747 77 128 3.0 4.0 0.00 0.00 0.00 84 1014.6
20260901085232 77 128 3.0 4.0 0.00 0.00 0.00 85 1014.5
20260901084744 77 128 3.0 4.0 0.00 0.00 0.00 85 1014.5
20260901084527 77 128 2.0 6.0 0.00 0.00 0.00 85 1011.8
20260901084233 77 128 2.0 6.0 0.00 0.00 0.00 85 1014.5
20260901083745 77 128 3.0 7.0 0.00 0.00 0.00 85 1014.5
20260901083235 77 111 4.0 6.0 0.00 0.00 0.00 85 1014.4
20260901083013 76 123 3.0 6.0 0.00 0.00 0.00 85 1011.7
20260901082742 77 117 3.0 4.0 0.00 0.00 0.00 85 1014.4
20260901082227 77 110 3.0 4.0 0.00 0.00 0.00 85 1014.4
20260901081740 77 110 2.0 4.0 0.00 0.00 0.00 85 1014.4
20260901081515 77 110 2.0 4.0 0.00 0.00 0.00 85 1011.7
20260901081235 77 110 2.0 5.0 0.00 0.00 0.00 85 1014.4
20260901080747 77 115 3.0 5.0 0.00 0.00 0.00 85 1014.4
20260901080233 77 110 3.0 6.0 0.00 0.00 0.00 85 1014.4
20260901080059 77 112 3.0 4.0 0.00 0.00 0.00 85 1011.7
20260901075747 77 128 3.0 4.0 0.00 0.00 0.00 85 1014.5
20260901075230 77 128 2.0 3.0 0.00 0.00 0.00 85 1014.4
20260901074738 77 128 3.0 4.0 0.00 0.00 0.00 85 1014.5
20260901074601 77 128 2.0 4.0 0.00 0.00 0.00 85 1011.8
20260901074252 77 128 2.0 6.0 0.00 0.00 0.00 85 1014.4
20260901073742 77 128 3.0 7.0 0.00 0.00 0.00 85 1014.4
20260901073225 77 116 4.0 7.0 0.00 0.00 0.00 84 1014.4
20260901073046 77 116 2.0 5.0 0.00 0.00 0.00 84 1011.7
20260901072737 78 113 3.0 5.0 0.00 0.00 0.00 84 1014.5
20260901072309 78 94 3.0 5.0 0.00 0.00 0.00 84 1014.4
20260901071731 78 58 1.0 3.0 0.00 0.00 0.00 83 1014.5
20260901071528 77 58 2.0 4.0 0.00 0.00 0.00 83 1011.9
20260901071243 78 58 2.0 4.0 0.00 0.00 0.00 83 1014.5
20260901070751 78 58 2.0 4.0 0.00 0.00 0.00 83 1014.5
20260901070242 78 58 2.0 4.0 0.00 0.00 0.00 82 1014.6
20260901070104 78 58 2.0 4.0 0.00 0.00 0.00 82 1011.9
20260901070001 78 58 2.0 3.0 0.00 0.00 0.00 82 1011.8
20260901065727 78 58 2.0 3.0 0.00 0.00 0.00 82 1014.6
20260901065238 79 58 2.0 4.0 0.00 0.00 0.00 82 1014.5
20260901064750 79 58 2.0 4.0 0.00 0.00 0.00 82 1014.5
20260901064547 78 58 2.0 4.0 0.00 0.00 0.00 82 1011.8
20260901064244 79 54 2.0 5.0 0.00 0.00 0.00 82 1014.5
20260901063723 79 54 1.0 5.0 0.00 0.00 0.00 82 1014.5
20260901063236 79 59 2.0 6.0 0.00 0.00 0.00 82 1014.4
20260901063056 79 61 2.0 6.0 0.00 0.00 0.00 82 1011.8
20260901062747 79 55 3.0 6.0 0.00 0.00 0.00 82 1014.5
20260901062231 79 59 4.0 7.0 0.00 0.00 0.00 82 1014.5
20260901061745 80 64 3.0 5.0 0.00 0.00 0.00 81 1014.6
20260901061547 79 64 3.0 5.0 0.00 0.00 0.00 81 1012.0
20260901061231 80 63 3.0 6.0 0.00 0.00 0.00 81 1014.6
20260901060742 80 66 2.0 6.0 0.00 0.00 0.00 81 1014.7
20260901060227 80 65 3.0 5.0 0.00 0.00 0.00 81 1014.7
20260901060054 79 91 2.0 5.0 0.00 0.00 0.00 81 1012.1
20260901055737 80 97 3.0 5.0 0.00 0.00 0.00 81 1014.8
20260901055250 80 94 3.0 6.0 0.00 0.00 0.00 82 1014.7
20260901054734 80 92 3.0 7.0 0.00 0.00 0.00 82 1014.7
20260901054558 79 116 3.0 7.0 0.00 0.00 0.00 82 1012.0
20260901054248 80 96 4.0 7.0 0.00 0.00 0.00 82 1014.7
20260901053730 79 95 4.0 6.0 0.00 0.00 0.00 82 1014.7
20260901053242 79 88 3.0 6.0 0.00 0.00 0.00 82 1014.7
20260901053000 79 101 2.0 6.0 0.00 0.00 0.00 82 1012.0
20260901052727 79 111 2.0 6.0 0.00 0.00 0.00 82 1014.8
20260901052239 80 111 2.0 6.0 0.00 0.00 0.00 82 1014.9
20260901051721 80 84 3.0 6.0 0.00 0.00 0.00 82 1014.8
20260901051513 79 93 2.0 4.0 0.00 0.00 0.00 81 1012.2
20260901051231 80 93 2.0 4.0 0.00 0.00 0.00 81 1014.9
20260901050740 80 65 0.0 2.0 0.00 0.00 0.00 80 1014.9
20260901050226 80 65 0.0 2.0 0.00 0.00 0.00 80 1014.9
20260901050019 80 65 0.0 2.0 0.00 0.00 0.00 80 1012.2
20260901045738 80 65 0.0 0.0 0.00 0.00 0.00 80 1014.9
20260901045222 80 65 0.0 3.0 0.00 0.00 0.00 80 1014.9
20260901044733 80 65 1.0 3.0 0.00 0.00 0.00 79 1014.8
20260901044514 80 65 1.0 2.0 0.00 0.00 0.00 79 1012.1
20260901044248 81 65 1.0 2.0 0.00 0.00 0.00 79 1014.8
20260901043731 81 65 1.0 2.0 0.00 0.00 0.00 78 1014.8
20260901043239 81 65 1.0 2.0 0.00 0.00 0.00 78 1014.8
20260901043014 80 65 1.0 2.0 0.00 0.00 0.00 78 1012.0
20260901042722 81 65 1.0 2.0 0.00 0.00 0.00 78 1014.7
20260901042233 81 65 1.0 2.0 0.00 0.00 0.00 77 1014.7
20260901041743 81 65 1.0 2.0 0.00 0.00 0.00 77 1014.8
20260901041520 81 65 0.0 2.0 0.00 0.00 0.00 77 1012.1
20260901041227 81 65 2.0 2.0 0.00 0.00 0.00 77 1014.8
20260901040755 82 65 1.0 2.0 0.00 0.00 0.00 77 1014.8
20260901040245 82 65 1.0 2.0 0.00 0.00 0.00 76 1014.8
20260901040044 81 65 0.0 2.0 0.00 0.00 0.00 76 1012.1
20260901035731 82 65 0.0 1.0 0.00 0.00 0.00 76 1014.8
20260901035243 82 65 0.0 2.0 0.00 0.00 0.00 76 1014.8
20260901034727 82 65 1.0 2.0 0.00 0.00 0.00 76 1014.7
20260901034550 82 65 0.0 2.0 0.00 0.00 0.00 75 1011.9
20260901034239 82 65 1.0 3.0 0.00 0.00 0.00 76 1014.6